x

Port Wing, Wi (pngw3) Weather Station

11:40am - Fri 30th Jan 2015 All times are CST. -6 hours from GMT.

  • Wind
    6mph, 10mph gusts
  • Air Temp 12°f
  • Sea Pressure 1031.5mb
  • Port Wing, Wi
  • Port Wing, Wi

More Historic Weather Station data

Upgrade to MSW Pro to gain access to the past 30 days of data for over 8000 Wavebouys and Weather Stations around the globe.

Join Pro

Comparision Forecast

View Surf forecast
   
Fri 01/30 11:40am 6 10 mph 1031.5mb 12f
11:30am 7 9 mph 1031.8mb 12f
11:20am 7 10 mph 1031.8mb 12f
11:10am 8 11 mph 1032.2mb 12f
11:00am 7 10 mph 1032.2mb 11f
10:40am 8 10 mph 1032.8mb 11f
10:30am 9 11 mph 1032.8mb 10f
10:20am 8 9 mph 1032.8mb 10f
10:10am 7 9 mph 1032.8mb 10f
10:00am 8 10 mph 1032.8mb 10f
9:40am 8 10 mph 1032.8mb 9f
9:30am 7 10 mph 1032.8mb 8f
9:20am 9 10 mph 1032.8mb 8f
9:10am 9 10 mph 1032.8mb 8f
9:00am 8 10 mph 1033.2mb 8f
8:40am 7 9 mph 1033.2mb 8f
8:30am 6 8 mph 1033.2mb 9f
8:20am 7 10 mph 1033.2mb 9f
8:10am 7 9 mph 1033.2mb 9f
8:00am 6 10 mph 1033.2mb 9f
7:40am 8 10 mph 1033.2mb 9f
7:30am 7 9 mph 1033.2mb 9f
7:20am 7 8 mph 1033.2mb 9f
7:10am 6 8 mph 1032.8mb 9f
7:00am 7 10 mph 1032.8mb 9f
6:40am 7 9 mph 1033.2mb 9f
6:30am 7 9 mph 1033.2mb 9f
6:20am 8 9 mph 1033.2mb 9f
6:10am 7 9 mph 1032.8mb 10f
6:00am 6 8 mph 1032.8mb 10f
5:40am 6 11 mph 1032.8mb 11f
5:30am 5 11 mph 1032.8mb 11f
5:20am 7 13 mph 1033.2mb 11f
5:10am 9 15 mph 1033.2mb 11f
5:00am 9 11 mph 1033.2mb 11f
4:40am 8 15 mph 1033.2mb 12f
4:30am 8 13 mph 1033.2mb 12f
4:20am 10 14 mph 1033.2mb 12f
4:10am 7 11 mph 1033.5mb 12f
4:00am 7 11 mph 1033.5mb 12f
3:40am 9 16 mph 1033.9mb 13f
3:30am 11 16 mph 1033.5mb 13f
3:20am 11 15 mph 1033.5mb 13f
3:10am 13 16 mph 1033.5mb 13f
3:00am 11 16 mph 1033.5mb 14f
2:40am 13 16 mph 1033.5mb 14f
2:30am 13 17 mph 1033.2mb 14f
2:20am 6 13 mph 1033.5mb 14f
2:10am 10 13 mph 1033.5mb 14f
2:00am 6 11 mph 1033.5mb 14f
1:40am 8 14 mph 1033.2mb 15f
1:30am 13 16 mph 1033.5mb 15f
1:20am 11 15 mph 1033.2mb 15f
1:10am 9 16 mph 1033.2mb 15f
1:00am 11 15 mph 1033.2mb 15f
12:40am 8 16 mph 1033.2mb 15f
12:30am 9 18 mph 1033.2mb 15f
12:20am 9 15 mph 1033.2mb 15f
12:10am 7 11 mph 1032.8mb 15f
12:00am 10 14 mph 1032.8mb 15f
Thu 01/29 11:40pm 13 20 mph 1032.8mb 16f
11:30pm 9 15 mph 1032.8mb 15f
11:20pm 10 16 mph 1032.8mb 16f
11:10pm 14 18 mph 1032.8mb 16f
11:00pm 16 21 mph 1032.5mb 16f
10:40pm 18 21 mph 1032.5mb 16f
10:30pm 15 22 mph 1032.2mb 17f
10:20pm 17 20 mph 1032.2mb 17f
10:10pm 17 21 mph 1032.2mb 17f
10:00pm 16 22 mph 1031.8mb 17f
9:40pm 14 23 mph 1031.8mb 17f
9:30pm 16 23 mph 1031.8mb 17f
9:20pm 18 23 mph 1031.8mb 17f
9:10pm 17 23 mph 1031.8mb 17f
9:00pm 20 26 mph 1031.5mb 17f
8:40pm 20 25 mph 1031.5mb 18f
8:30pm 21 25 mph 1031.5mb 18f
8:20pm 22 25 mph 1031.5mb 18f
8:10pm 20 25 mph 1031.2mb 18f
8:00pm 22 25 mph 1031.2mb 18f
7:40pm 21 26 mph 1030.8mb 18f
7:30pm 23 30 mph 1030.8mb 18f
7:20pm 21 25 mph 1030.5mb 19f
7:10pm 20 24 mph 1030.5mb 19f
7:00pm 22 30 mph 1030.1mb 19f
6:40pm 25 33 mph 1030.1mb 19f
6:35pm 23 32 mph 1029.8mb 19f
6:30pm 26 31 mph 1029.8mb 20f
6:20pm 28 34 mph 1029.5mb 20f
6:10pm 25 34 mph 1028.8mb 20f
6:00pm 21 31 mph 1028.8mb 20f
5:40pm 22 29 mph 1028.4mb 20f
5:35pm 23 29 mph 1028.1mb 20f
5:30pm 21 26 mph 1028.1mb 20f
5:20pm 24 29 mph 1027.8mb 20f
5:10pm 23 28 mph 1027.8mb 20f
5:00pm 23 31 mph 1027.1mb 21f
4:40pm 22 29 mph 1026.8mb 22f
4:33pm 24 29 mph 1026.4mb 22f
4:30pm 24 29 mph 1026.4mb 22f
4:20pm 24 29 mph 1026.1mb 22f
4:10pm 23 29 mph 1026.1mb 22f
4:00pm 24 29 mph 1025.7mb 22f
3:40pm 23 28 mph 1025.1mb 23f
3:30pm 24 29 mph 1024.7mb 23f
3:28pm 25 29 mph 1024.7mb 23f
3:20pm 24 26 mph 1024.4mb 24f
3:10pm 22 25 mph 1024.4mb 24f
3:00pm 21 24 mph 1024.4mb 24f
2:40pm 21 26 mph 1024mb 24f
2:30pm 21 25 mph 1023.7mb 24f
2:20pm 22 28 mph 1023.7mb 25f
2:10pm 23 29 mph 1023.4mb 25f
2:00pm 23 29 mph 1023mb 25f
1:40pm 22 26 mph 1023mb 25f
1:30pm 22 28 mph 1022.7mb 26f
1:20pm 23 28 mph 1022.7mb 26f
1:10pm 23 29 mph 1022.7mb 26f
1:00pm 24 28 mph 1022.4mb 26f
12:50pm 24 26 mph 1022.4mb 27f
12:40pm 23 29 mph 1022mb 27f
12:30pm 24 29 mph 1022mb 27f
12:22pm 24 29 mph 1022mb 27f
12:20pm 23 28 mph 1022mb 27f
12:10pm 23 28 mph 1021.7mb 27f
12:00pm 24 28 mph 1021.7mb 27f
11:50am 24 30 mph 1021.7mb 27f
11:40am 24 29 mph 1021.3mb 28f
11:30am 18 22 mph 1021.3mb 28f
11:20am 20 23 mph 1021mb 28f
11:10am 21 26 mph 1021mb 28f
11:00am 23 29 mph 1021mb 28f
10:50am 26 30 mph 1021mb 28f
10:48am 24 29 mph 1020.7mb 28f
10:40am 21 26 mph 1020.7mb 28f
10:30am 23 26 mph 1020.3mb 28f
10:20am 23 26 mph 1020mb 28f
10:10am 23 28 mph 1020mb 28f
10:00am 22 24 mph 1019.6mb 29f
9:50am 18 26 mph 1019.3mb 29f
9:40am 24 29 mph 1019.3mb 29f
9:30am 26 31 mph 1019mb 29f
9:20am 24 26 mph 1019mb 29f
9:10am 21 24 mph 1018.6mb 29f
9:00am 23 31 mph 1018.6mb 29f
8:50am 25 34 mph 1018.3mb 30f
8:40am 29 33 mph 1018.3mb 29f
8:31am 25 29 mph 1017.9mb 30f
8:30am 25 28 mph 1017.9mb 30f
8:20am 24 29 mph 1017.6mb 30f
8:10am 24 29 mph 1017.6mb 31f
8:00am 23 26 mph 1017.3mb 31f
7:50am 23 26 mph 1016.9mb 31f
7:40am 21 26 mph 1016.6mb 31f
7:30am 23 30 mph 1016.6mb 31f
7:20am 25 31 mph 1016.3mb 31f
7:11am 24 29 mph 1016.3mb 31f
7:10am 24 26 mph 1016.3mb 31f
7:00am 22 26 mph 1015.9mb 31f
6:50am 18 23 mph 1015.6mb 32f
6:40am 17 20 mph 1015.2mb 32f
6:30am 20 24 mph 1015.2mb 32f
6:20am 21 24 mph 1014.9mb 32f
6:10am 18 25 mph 1014.9mb 32f
6:00am 22 28 mph 1014.9mb 32f
5:50am 24 29 mph 1014.6mb 32f
5:40am 20 24 mph 1014.2mb 32f
5:30am 20 28 mph 1014.2mb 32f
5:20am 20 23 mph 1013.9mb 32f
5:10am 18 22 mph 1013.9mb 32f
5:00am 20 29 mph 1013.5mb 32f
4:50am 26 31 mph 1013.2mb 32f
4:40am 23 25 mph 1012.9mb 32f
4:30am 21 26 mph 1012.9mb 32f
4:20am 24 28 mph 1012.5mb 32f
4:10am 24 29 mph 1012.2mb 32f
4:05am 23 29 mph 1012.2mb 33f
4:00am 22 26 mph 1012.2mb 33f
3:50am 17 23 mph 1011.9mb 33f
3:40am 22 24 mph 1011.9mb 33f
3:30am 13 17 mph 1011.9mb 32f
3:20am 14 16 mph 1011.5mb 32f
3:10am 13 15 mph 1011.5mb 32f
3:00am 14 17 mph 1011.5mb 32f
2:50am 13 16 mph 1011.5mb 31f
2:40am 14 16 mph 1011.2mb 31f
2:30am 9 14 mph 1011.2mb 31f
2:20am 11 14 mph 1011.2mb 31f
2:10am 9 14 mph 1011.2mb 31f
2:00am 10 14 mph 1010.8mb 31f
1:50am 10 13 mph 1010.8mb 31f
1:40am 10 14 mph 1010.8mb 31f
1:30am 10 13 mph 1010.8mb 31f
1:20am 10 15 mph 1010.8mb 31f
1:10am 11 14 mph 1010.8mb 31f
1:00am 11 15 mph 1010.8mb 31f
12:50am 11 15 mph 1010.8mb 31f
12:40am 9 14 mph 1010.8mb 31f
12:30am 10 13 mph 1010.8mb 31f
12:20am 10 14 mph 1010.8mb 31f
12:10am 9 13 mph 1010.8mb 31f
12:00am 9 11 mph 1010.8mb 31f
Wed 01/28 11:50pm 10 13 mph 1010.8mb 31f
11:40pm 9 11 mph 1010.8mb 31f
11:30pm 9 14 mph 1011.2mb 31f
11:20pm 10 13 mph 1010.8mb 31f
11:10pm 9 11 mph 1010.8mb 31f
11:00pm 3 7 mph 1010.8mb 30f
10:40pm 3 5 mph 1010.8mb 30f
10:30pm 3 5 mph 1010.8mb 30f
10:20pm 5
mph
1010.8mb 30f
10:10pm 3 6 mph 1010.8mb 30f
10:00pm 3 5 mph 1010.8mb 30f
9:50pm 5 6 mph 1010.8mb 30f
9:40pm 3 6 mph 1010.8mb 30f
9:30pm 3 5 mph 1010.8mb 30f
9:20pm 2 3 mph 1011.2mb 30f
9:10pm 2 5 mph 1011.2mb 30f
9:00pm 3 5 mph 1011.2mb 30f
8:50pm 5 6 mph 1011.2mb 30f
8:40pm 3
mph
1011.2mb 30f
8:30pm 2 3 mph 1011.5mb 30f
8:20pm 2 3 mph 1011.5mb 30f
8:10pm 3 5 mph 1011.5mb 30f
8:00pm 3 5 mph 1011.5mb 30f
7:50pm 3
mph
1011.5mb 30f
7:40pm 2 3 mph 1011.5mb 30f
7:30pm 2
mph
1011.5mb 30f
7:20pm 2
mph
1011.2mb 30f
7:10pm 2
mph
1011.2mb 30f
7:00pm  -  2 mph 1011.2mb 30f
6:50pm 2
mph
1011.5mb 30f
6:40pm 2
mph
1011.5mb 30f
6:30pm 1 2 mph 1011.5mb 30f
6:20pm 1 2 mph 1011.5mb 30f
6:10pm 1 2 mph 1011.5mb 30f
6:00pm 2
mph
1011.2mb 30f
5:50pm  -  1 mph 1011.2mb 30f
5:40pm  -  2 mph 1010.8mb 30f
5:30pm  -  3 mph 1010.8mb 31f
5:20pm 3 5 mph 1010.8mb 31f
5:10pm 5 7 mph 1010.8mb 31f
5:00pm 5 7 mph 1010.8mb 31f
4:50pm 5 7 mph 1010.8mb 31f
4:40pm 7 8 mph 1010.8mb 30f
4:30pm 7 8 mph 1010.8mb 30f
4:20pm 7 8 mph 1010.8mb 30f
4:10pm 7 8 mph 1010.8mb 30f
4:00pm 6 9 mph 1010.8mb 30f
3:50pm 8 9 mph 1010.8mb 30f
3:40pm 8
mph
1010.8mb 30f
3:30pm 7 8 mph 1010.8mb 30f
3:20pm 8
mph
1011.2mb 30f
3:10pm 8 9 mph 1011.2mb 30f
3:00pm 8 10 mph 1011.2mb 30f
2:50pm 9 11 mph 1011.2mb 30f
2:40pm 9 11 mph 1011.5mb 29f
2:30pm 10 11 mph 1011.5mb 29f
2:20pm 5 10 mph 1011.5mb 30f
2:10pm 7 11 mph 1011.9mb 30f
2:00pm 3 9 mph 1011.9mb 31f
1:50pm 7 8 mph 1011.9mb 31f
1:40pm 6 7 mph 1012.2mb 31f
1:30pm 3 9 mph 1012.5mb 30f
1:20pm 7 9 mph 1012.5mb 30f
1:10pm 6 9 mph 1013.2mb 29f
1:00pm 7 9 mph 1013.2mb 29f
12:50pm 7 9 mph 1013.5mb 29f
12:40pm 6 9 mph 1013.9mb 29f
12:30pm 8 11 mph 1013.9mb 29f
12:20pm 2 7 mph 1014.2mb 32f
12:10pm 6 7 mph 1014.2mb 32f
12:00pm 1 7 mph 1014.6mb 32f
11:50am 5 8 mph 1014.9mb 31f
11:40am 7 10 mph 1014.9mb 31f
11:30am 3 6 mph 1015.2mb 32f
11:20am 2 7 mph 1015.2mb 31f
11:10am 2 7 mph 1015.6mb 30f
11:00am 5 9 mph 1015.6mb 29f
10:50am 3 6 mph 1015.9mb 29f
10:40am 2 7 mph 1015.9mb 29f
10:30am 3 6 mph 1016.3mb 29f
10:20am  -  3 mph 1016.6mb 28f
10:10am 1 7 mph 1016.6mb 27f
10:00am 5 8 mph 1016.6mb 27f
9:50am 6 8 mph 1016.6mb 27f
9:40am 6 7 mph 1016.6mb 27f
9:30am 2 5 mph 1016.9mb 26f
9:20am 5 7 mph 1016.9mb 26f
9:10am 5 6 mph 1016.6mb 26f
9:00am 1 2 mph 1016.6mb 26f
8:50am  -  3 mph 1016.9mb 26f
8:40am  -  1 mph 1016.9mb 25f
8:30am  -  2 mph 1016.9mb 25f
8:20am  -  3 mph 1017.3mb 25f
8:10am  -  2 mph 1017.3mb 24f
8:00am 1 3 mph 1017.6mb 24f
7:50am  -  2 mph 1017.6mb 24f
7:40am 2 3 mph 1017.6mb 24f
7:30am 3
mph
1017.6mb 24f
7:20am 1 2 mph 1017.9mb 24f
7:10am  -  2 mph 1017.9mb 24f
7:00am 1 2 mph 1017.9mb 25f
6:50am 2 3 mph 1017.9mb 25f
6:40am 2 6 mph 1017.9mb 25f
6:30am 2 6 mph 1018.3mb 26f
6:20am 1 6 mph 1018.3mb 26f
6:10am 3 6 mph 1018.6mb 26f
6:00am 3 7 mph 1018.6mb 26f
5:50am 3 5 mph 1018.6mb 26f
5:40am 2 3 mph 1018.6mb 26f
5:30am 2 3 mph 1018.6mb 26f
5:20am 3
mph
1018.6mb 26f
5:10am 3 5 mph 1018.6mb 26f
5:00am 3 5 mph 1018.6mb 26f
4:50am 2 7 mph 1018.6mb 26f
4:40am 8 11 mph 1018.6mb 26f
4:30am 5 7 mph 1019mb 26f
4:20am 5 7 mph 1019mb 26f
4:10am 3 6 mph 1019.3mb 27f
4:00am 3 6 mph 1019.3mb 27f
3:50am 5 8 mph 1019.3mb 27f
3:40am 6 8 mph 1019.3mb 28f
3:30am 6 8 mph 1019.6mb 28f
3:20am 7 9 mph 1019.3mb 28f
3:10am 3 7 mph 1019.6mb 28f
3:00am 5 7 mph 1019.6mb 28f
2:50am 5 7 mph 1019.3mb 28f
2:40am 5 8 mph 1019.6mb 28f
2:30am 6 10 mph 1019.6mb 29f
2:20am 8 11 mph 1020mb 29f
2:10am 6 10 mph 1020mb 29f
2:00am 6 10 mph 1020mb 29f
1:50am 7 9 mph 1020mb 29f
1:40am 6 11 mph 1020mb 29f
1:30am 7 10 mph 1020mb 29f
1:20am 8 11 mph 1020mb 29f
1:10am 8 10 mph 1020mb 29f
1:00am 6 8 mph 1020.3mb 29f
12:50am 6 9 mph 1020.3mb 29f
12:40am 6 8 mph 1020.3mb 29f
12:30am 3 7 mph 1020.3mb 29f
12:20am 5 7 mph 1020.3mb 29f
12:10am 5 9 mph 1020.3mb 29f
12:00am 5 9 mph 1020.3mb 29f
Tue 01/27 11:50pm 6 7 mph 1020.3mb 29f
11:40pm 6 10 mph 1020.3mb 29f
11:30pm 6 10 mph 1020.7mb 29f
11:20pm 6 9 mph 1020.7mb 29f
11:10pm 7 9 mph 1020.7mb 29f
11:00pm 7 9 mph 1021mb 29f
10:50pm 7 11 mph 1020.7mb 29f
10:40pm 6 7 mph 1021mb 29f
10:30pm 5 7 mph 1021.3mb 29f
10:20pm 5 7 mph 1021.3mb 29f
10:10pm 2 5 mph 1021.3mb 29f
10:00pm 2 6 mph 1021mb 29f
9:50pm 5 6 mph 1021mb 29f
9:40pm 3 6 mph 1021.3mb 29f
9:30pm 5 7 mph 1021mb 29f
9:20pm 3 5 mph 1021mb 29f
9:10pm 3 6 mph 1021mb 29f
9:00pm 1 3 mph 1021mb 29f
8:50pm 2 5 mph 1021mb 29f
8:40pm 3 5 mph 1021.3mb 29f
8:30pm 3 5 mph 1021.3mb 29f
8:20pm 2 6 mph 1021.3mb 29f
8:10pm 5 7 mph 1021.3mb 29f
8:00pm 5 7 mph 1021.7mb 29f
7:50pm 3 6 mph 1021.7mb 29f
7:40pm 3 6 mph 1021.3mb 29f
7:30pm 5 6 mph 1021.7mb 29f
7:20pm 5 7 mph 1022mb 29f
7:10pm 6 8 mph 1022mb 29f
7:00pm 5 7 mph 1021.7mb 29f
6:50pm 8 9 mph 1021.3mb 29f
6:40pm 7 8 mph 1021.7mb 30f
6:30pm 6 8 mph 1021.7mb 30f
6:20pm 7 9 mph 1021.3mb 30f
6:10pm 5 7 mph 1021.7mb 30f
6:00pm 5
mph
1021.7mb 30f
5:50pm 3 5 mph 1021.7mb 30f
5:40pm 3 5 mph 1021.7mb 30f
5:30pm 3 6 mph 1021.7mb 30f
5:20pm 5 7 mph 1021.7mb 30f
5:10pm 2 7 mph 1021.3mb 30f
5:00pm 6 7 mph 1021.3mb 30f
4:50pm 6 7 mph 1021.3mb 30f
4:40pm 6 7 mph 1021.7mb 31f
4:30pm 6 9 mph 1021.3mb 31f
4:20pm 6 8 mph 1021.3mb 31f
4:10pm 5 10 mph 1021.7mb 31f
4:00pm 6 9 mph 1021.3mb 31f
3:50pm 1 3 mph 1021.7mb 30f
3:40pm  -  1 mph 1021.7mb 30f
3:30pm  -  2 mph 1021.7mb 30f
3:20pm 2 3 mph 1021.7mb 29f
3:10pm 2
mph
1021.7mb 30f
3:00pm 2 3 mph 1021.7mb 30f
2:50pm 2 5 mph 1021.7mb 30f
2:40pm 3
mph
1021.7mb 30f
2:30pm 2
mph
1021.7mb 30f
2:20pm 2 3 mph 1021.7mb 30f
2:10pm 3 5 mph 1021.7mb 29f
2:00pm 6 7 mph 1021.7mb 29f
1:50pm 6
mph
1022mb 29f
1:40pm 6 7 mph 1022mb 29f
1:30pm 3 5 mph 1021.7mb 30f
1:20pm 2 5 mph 1021.7mb 30f
1:10pm 3 5 mph 1022mb 29f
1:00pm 2 3 mph 1022.4mb 30f
12:50pm 3 5 mph 1022.4mb 29f
12:40pm 3 5 mph 1022.4mb 29f
12:30pm 5 8 mph 1022.4mb 29f
12:20pm 7 8 mph 1022.7mb 29f
12:10pm 6 7 mph 1022.7mb 29f
12:00pm 5 8 mph 1022.4mb 29f
11:50am 6 8 mph 1022.4mb 29f
11:40am 5 6 mph 1022.4mb 29f
11:30am 3 5 mph 1022.4mb 29f
11:20am 2 3 mph 1022mb 30f
11:10am 2 8 mph 1022mb 29f
11:00am 3 5 mph 1022mb 29f
10:50am 3 5 mph 1022mb 29f
10:40am 2 3 mph 1022mb 29f
10:30am 2 3 mph 1021.7mb 29f
10:20am 2 3 mph 1022mb 29f
10:10am 3 5 mph 1021.7mb 29f
10:00am 2 5 mph 1021.7mb 28f
9:50am 2 3 mph 1021.7mb 28f
9:40am 2 5 mph 1021.7mb 28f
9:30am 2 5 mph 1021.7mb 28f
9:20am 3 5 mph 1021.7mb 28f
9:10am 3
mph
1021.3mb 28f
9:00am 3 5 mph 1021.3mb 27f
8:50am 2 5 mph 1021.3mb 27f
8:40am 2 3 mph 1021.3mb 27f
8:30am 2 3 mph 1021mb 26f
8:20am 2 3 mph 1021mb 26f
8:10am 2
mph
1021mb 26f
8:00am 2
mph
1021mb 27f
7:50am 2
mph
1021mb 27f
7:40am 2
mph
1021mb 27f
7:30am 1 3 mph 1021mb 27f
7:20am 2 6 mph 1021mb 27f
7:10am 3 5 mph 1020.7mb 27f
7:00am 2 3 mph 1020.3mb 27f
6:50am 2 3 mph 1020mb 28f
6:40am 3 5 mph 1020mb 28f
6:30am 3 7 mph 1020mb 28f
6:20am 7 8 mph 1020mb 28f
6:10am 6 8 mph 1020mb 28f
6:00am 6 7 mph 1020mb 28f
5:50am 3 10 mph 1020mb 28f
5:40am 8 10 mph 1020mb 28f
5:30am 6 9 mph 1019.6mb 28f
5:20am 8 9 mph 1019.6mb 28f
5:10am 9 10 mph 1019.6mb 28f
5:00am 8 9 mph 1019.6mb 28f
4:50am 7 13 mph 1019.3mb 28f
4:40am 6 8 mph 1019.3mb 28f
4:30am 8 10 mph 1019.3mb 28f
4:20am 6 13 mph 1019.3mb 28f
4:10am 8 11 mph 1019mb 28f
4:00am 9 13 mph 1019mb 29f
3:50am 11 14 mph 1019mb 29f
3:40am 9 14 mph 1019mb 29f
3:30am 11 13 mph 1019mb 29f
3:20am 10 13 mph 1018.6mb 29f
3:10am 9 13 mph 1018.6mb 29f
3:00am 10 13 mph 1018.3mb 29f
2:50am 10 13 mph 1018.3mb 29f
2:40am 10 14 mph 1017.9mb 29f
2:30am 13 15 mph 1017.9mb 29f
2:20am 13 15 mph 1017.9mb 29f
2:10am 14 15 mph 1017.9mb 29f
2:00am 13 15 mph 1017.6mb 29f
1:50am 15 16 mph 1017.6mb 29f
1:40am 14 15 mph 1017.3mb 29f
1:30am 11 14 mph 1016.9mb 30f
1:20am 13 15 mph 1016.9mb 30f
1:10am 11 14 mph 1016.9mb 29f
1:00am 9 15 mph 1016.6mb 29f
12:50am 13 15 mph 1016.6mb 30f
12:40am 13 15 mph 1016.6mb 29f
12:30am 11 16 mph 1016.3mb 29f
12:20am 15 16 mph 1016.3mb 29f
12:10am 14 16 mph 1015.9mb 29f
12:00am 13 16 mph 1015.9mb 29f
Mon 01/26 11:50pm 14 16 mph 1015.9mb 30f
11:40pm 14 15 mph 1015.6mb 30f
11:30pm 13 17 mph 1015.6mb 30f
11:20pm 13 16 mph 1015.2mb 30f
11:10pm 13 15 mph 1015.2mb 30f
11:00pm 14 16 mph 1014.9mb 30f
10:50pm 14 15 mph 1014.9mb 30f
10:40pm 11 14 mph 1014.9mb 28f
10:30pm 1 3 mph 1014.6mb 27f
10:20pm 2 3 mph 1014.6mb 27f
10:10pm 2
mph
1014.2mb 27f
10:00pm 2
mph
1014.2mb 27f
9:50pm  -  2 mph 1013.9mb 27f
9:40pm 2
mph
1014.2mb 27f
9:30pm 1 2 mph 1014.2mb 27f
9:20pm  -  2 mph 1013.9mb 27f
9:10pm 1 2 mph 1013.9mb 27f
9:00pm 2
mph
1013.9mb 27f
8:50pm 1 2 mph 1013.9mb 27f
8:40pm 1
mph
1013.5mb 27f
8:30pm  -  2 mph 1013.2mb 27f
8:20pm  -  2 mph 1013.2mb 27f
8:10pm 1 3 mph 1012.9mb 27f
8:00pm 1 3 mph 1012.9mb 27f
7:50pm 2
mph
1012.9mb 27f
7:40pm 1 2 mph 1012.5mb 27f
7:30pm  -  1 mph 1012.5mb 27f
7:20pm  -  1 mph 1012.5mb 27f
7:10pm  -  2 mph 1012.2mb 27f